KC8ZBC Weather Reports


time (UTC)temp
F
wind
direction
speed
knots
gust
knots
rain 1hr
in
rain 24hr
in
rain mn
in
humidity
%
barometer
mb
20260506143306 46 350 0.0 3.5 0.00 0.00 0.00 62 987.5
20260506142804 46 46 3.5 4.3 0.00 0.00 0.00 60 987.4
20260506142302 46 78 5.2 6.1 0.00 0.00 0.00 63 987.3
20260506141800 46 80 3.5 5.2 0.00 0.00 0.00 63 987.4
20260506141258 46 95 4.3 5.2 0.00 0.00 0.00 64 987.3
20260506140755 44 79 3.5 7.8 0.00 0.00 0.00 65 987.2
20260506140252 43 85 1.7 4.3 0.00 0.00 0.00 66 987.2
20260506135749 44 22 5.2 7.8 0.00 0.00 0.00 66 987.4
20260506135245 43 33 2.6 4.3 0.00 0.00 0.00 66 987.2
20260506134742 43 12 3.5 4.3 0.00 0.00 0.00 66 987.2
20260506134238 43 34 3.5 4.3 0.00 0.00 0.00 66 987.1
20260506133736 43 4 2.6 6.1 0.00 0.00 0.00 67 987.2
20260506133232 43 352 2.6 5.2 0.00 0.00 0.00 67 987.2
20260506132729 44 36 2.6 4.3 0.00 0.00 0.00 65 986.6
20260506132226 43 351 1.7 3.5 0.00 0.00 0.00 67 986.8
20260506131724 42 348 0.9 4.3 0.00 0.00 0.00 67 987.0
20260506131220 43 49 5.2 6.1 0.00 0.00 0.00 67 987.0
20260506130717 43 78 4.3 6.1 0.00 0.00 0.00 66 986.9
20260506130214 42 280 2.6 4.3 0.00 0.00 0.00 67 986.9
20260506125712 43 42 2.6 3.5 0.00 0.00 0.00 68 986.6
20260506125209 42 130 3.5 7.0 0.00 0.00 0.00 69 986.7
20260506124707 42 56 0.0 5.2 0.00 0.00 0.00 70 986.5
20260506124205 42 32 2.6 3.5 0.00 0.00 0.00 71 986.5
20260506123702 42 53 3.5 5.2 0.00 0.00 0.00 72 986.5
20260506123201 42 92 4.3 6.1 0.00 0.00 0.00 70 986.4
20260506122657 41 90 2.6 4.3 0.00 0.00 0.00 72 986.5
20260506122155 41 98 5.2 7.8 0.00 0.00 0.00 73 986.1
20260506121653 41 81 2.6 5.2 0.00 0.00 0.00 75 986.5
20260506121149 41 59 3.5 4.3 0.00 0.00 0.00 76 986.2
20260506120647 41 53 2.6 2.6 0.00 0.00 0.00 76 985.9
20260506120143 42 35 5.2 6.1 0.00 0.00 0.00 75 986.0
20260506115642 42 0 1.7 2.6 0.00 0.00 0.00 75 985.9
20260506115140 41 307 0.9 2.6 0.00 0.00 0.00 77 985.6
20260506114637 40 4 1.7 5.2 0.00 0.00 0.00 77 985.6
20260506114135 40 4 1.7 2.6 0.00 0.00 0.00 77 985.5
20260506113633 41 0 2.6 2.6 0.00 0.00 0.00 77 985.4
20260506113130 41 72 2.6 2.6 0.00 0.00 0.00 77 985.6
20260506112626 40 5 0.0 2.6 0.00 0.00 0.00 78 985.5
20260506112124 40 0 1.7 1.7 0.00 0.00 0.00 78 985.3
20260506111621 40 90 0.0 0.9 0.00 0.00 0.00 78 985.3
20260506111119 40 71 0.9 1.7 0.00 0.00 0.00 78 985.1
20260506110616 40 74 0.0 1.7 0.00 0.00 0.00 77 985.0
20260506110114 41 69 0.9 0.9 0.00 0.00 0.00 75 985.1
20260506105610 41 96 0.9 1.7 0.00 0.00 0.00 75 984.8
20260506105107 40 85 1.7 2.6 0.00 0.00 0.00 74 984.9
20260506104605 41 90 0.0 1.7 0.00 0.00 0.00 75 984.9
20260506104102 41 72 1.7 2.6 0.00 0.00 0.00 74 984.9
20260506103559 41 66 0.0 0.9 0.00 0.00 0.00 74 984.9
20260506103056 41 98 0.0 1.7 0.00 0.00 0.00 74 984.8
20260506102554 41 69 0.9 2.6 0.00 0.00 0.00 73 984.7
20260506102051 41 105 0.0 0.9 0.00 0.00 0.00 73 984.7
20260506101548 42 74 0.0 2.6 0.00 0.00 0.00 73 984.8
20260506101045 42 36 0.9 2.6 0.00 0.00 0.00 74 984.7
20260506100543 42 28 0.0 1.7 0.00 0.00 0.00 77 984.6
20260506100041 42 26 2.6 3.5 0.00 0.00 0.00 79 984.4
20260506095540 42 350 0.0 1.7 0.00 0.00 0.00 80 984.3
20260506095036 43 286 0.0 1.7 0.00 0.00 0.00 81 983.9
20260506094533 43 69 0.0 1.7 0.00 0.00 0.00 82 983.8
20260506094031 43 77 1.7 2.6 0.00 0.00 0.00 83 984.1
20260506093529 43 71 1.7 1.7 0.00 0.00 0.00 83 984.1
20260506093026 43 48 1.7 2.6 0.00 0.00 0.00 83 984.0
20260506092524 43 111 0.0 1.7 0.00 0.00 0.00 83 984.1
20260506092021 43 262 0.0 1.7 0.00 0.00 0.00 83 984.0
20260506091520 43 23 0.0 0.0 0.00 0.00 0.00 83 984.0
20260506091016 43 23 0.0 0.0 0.00 0.00 0.00 83 984.1
20260506090514 43 29 0.0 0.9 0.00 0.00 0.00 82 984.0
20260506090010 43 69 0.0 2.6 0.00 0.00 0.00 82 983.7
20260506085507 44 114 0.0 0.0 0.00 0.00 0.00 81 983.8
20260506085003 44 114 0.0 0.9 0.00 0.00 0.00 80 983.8
20260506084500 44 26 0.0 2.6 0.00 0.00 0.00 80 983.8
20260506083956 44 66 0.9 1.7 0.00 0.00 0.00 79 983.8
20260506083454 44 346 0.0 0.0 0.00 0.00 0.00 79 983.9
20260506082951 44 66 0.0 0.0 0.00 0.00 0.00 78 983.9
20260506082448 44 54 0.9 1.7 0.00 0.00 0.00 78 984.0
20260506081943 44 54 0.0 0.0 0.00 0.00 0.00 77 984.0
20260506081442 44 270 0.0 0.9 0.00 0.00 0.00 76 984.2
20260506080939 44 294 0.0 0.0 0.00 0.00 0.00 76 984.1
20260506080436 44 131 0.0 0.0 0.00 0.00 0.00 75 983.9
20260506073420 45 337 0.0 0.0 0.00 0.00 0.00 71 984.0
20260506072917 45 286 0.0 0.9 0.00 0.00 0.00 70 983.9
20260506072414 45 40 0.0 0.9 0.00 0.00 0.00 69 983.5
20260506071912 46 4 0.0 1.7 0.00 0.00 0.00 68 983.9
20260506071410 46 294 0.0 1.7 0.00 0.00 0.00 68 983.8
20260506070906 46 337 0.9 1.7 0.00 0.00 0.00 67 984.0
20260506070403 46 283 0.9 1.7 0.00 0.00 0.00 66 983.8
20260506062340 46 340 0.0 1.7 0.00 0.00 0.00 63 983.7
20260506061836 46 337 0.0 1.7 0.00 0.00 0.00 62 983.9
20260506061333 46 264 0.0 2.6 0.00 0.00 0.00 62 983.9
20260506060831 47 292 2.6 2.6 0.00 0.00 0.00 61 984.3
20260506060329 47 286 0.0 1.7 0.00 0.00 0.00 60 983.7
20260506051301 47 346 0.0 0.9 0.00 0.00 0.00 60 983.8
20260506050759 47 289 0.0 1.7 0.00 0.00 0.00 58 983.7
20260506050256 47 263 0.9 2.6 0.00 0.00 0.00 59 983.8
20260506044746 48 286 0.0 1.7 0.00 0.00 0.00 59 983.9
20260506044244 48 254 0.0 1.7 0.00 0.00 0.00 58 983.5
20260506043741 48 297 0.0 1.7 0.00 0.00 0.00 58 983.4
20260506043238 48 285 0.9 1.7 0.00 0.00 0.00 57 983.7
20260506042737 48 286 1.7 1.7 0.00 0.00 0.00 57 983.6
20260506042235 48 286 0.0 0.9 0.00 0.00 0.00 57 983.6
20260506041733 48 285 0.0 0.9 0.00 0.00 0.00 58 983.8
20260506041230 48 334 0.0 1.7 0.00 0.00 0.00 57 983.5
20260506040727 48 300 0.0 1.7 0.00 0.00 0.00 56 983.6
20260506040224 48 66 0.0 0.9 0.00 0.00 0.00 56 983.6
20260506035721 48 291 0.0 1.7 0.00 0.00 0.00 56 983.7
20260506035218 48 23 0.0 1.7 0.00 0.00 0.00 55 983.7
20260506034715 48 331 0.0 2.6 0.00 0.00 0.00 56 983.5
20260506034212 48 263 0.0 1.7 0.00 0.00 0.00 58 983.7
20260506033709 48 337 0.9 1.7 0.00 0.00 0.00 59 983.6
20260506033206 48 246 0.0 0.9 0.00 0.00 0.00 55 983.6
20260506032703 48 285 0.0 0.9 0.00 0.00 0.00 61 983.7
20260506032200 48 157 0.0 1.7 0.00 0.00 0.00 56 983.9
20260506031657 48 289 0.0 1.7 0.00 0.00 0.00 56 983.7
20260506031154 48 294 0.0 1.7 0.00 0.00 0.00 55 983.7
20260506030652 48 270 0.0 0.9 0.00 0.00 0.00 55 983.8
20260506030149 49 286 0.0 1.7 0.00 0.00 0.00 55 983.7
20260506025646 49 283 0.0 0.0 0.00 0.00 0.00 54 983.6
20260506025142 49 283 0.0 0.9 0.00 0.00 0.00 54 983.7
20260506024640 49 188 0.0 0.0 0.00 0.00 0.00 53 983.8
20260506024136 49 0 0.0 1.7 0.00 0.00 0.00 53 983.7
20260506023632 49 286 0.0 0.9 0.00 0.00 0.00 54 983.9
20260506023129 49 209 0.0 1.7 0.00 0.00 0.00 53 983.4
20260506022627 49 14 0.0 1.7 0.00 0.00 0.00 52 983.5
20260506022124 49 279 0.0 0.9 0.00 0.00 0.00 52 983.5
20260506021622 49 240 0.0 1.7 0.00 0.00 0.00 53 983.8
20260506021119 50 234 0.9 1.7 0.00 0.00 0.00 52 983.7
20260506020616 50 279 0.0 1.7 0.00 0.00 0.00 53 983.9
20260506020114 50 251 0.0 0.0 0.00 0.00 0.00 53 983.7
20260506015611 50 255 0.0 0.9 0.00 0.00 0.00 52 983.5
20260506015108 50 270 0.9 1.7 0.00 0.00 0.00 49 983.3
20260506014605 50 276 1.7 1.7 0.00 0.00 0.00 51 983.2
20260506014100 50 257 0.0 1.7 0.00 0.00 0.00 51 983.3
20260506013559 50 246 0.0 0.0 0.00 0.00 0.00 51 983.3
20260506013055 50 291 0.0 1.7 0.00 0.00 0.00 49 983.1
20260506012551 50 286 0.9 1.7 0.00 0.00 0.00 51 983.1
20260506012048 50 275 0.0 2.6 0.00 0.00 0.00 50 983.2
20260506011546 50 290 1.7 1.7 0.00 0.00 0.00 49 983.2
20260506011042 50 0 0.0 3.5 0.00 0.00 0.00 48 983.0
20260506010542 51 270 1.7 2.6 0.00 0.00 0.00 50 983.2
20260506010038 51 215 0.0 1.7 0.00 0.00 0.00 51 983.0
20260506005535 51 278 0.0 0.9 0.00 0.00 0.00 50 983.0
20260506005031 51 186 0.0 0.9 0.00 0.00 0.00 50 983.1
20260506004529 51 263 0.0 0.9 0.00 0.00 0.00 50 983.1
20260506004025 51 353 0.0 1.7 0.00 0.00 0.00 49 983.2
20260506003521 51 352 0.0 0.9 0.00 0.00 0.00 49 983.0
20260506003018 51 0 0.0 2.6 0.00 0.00 0.00 47 983.0
20260506002514 51 228 0.0 2.6 0.00 0.00 0.00 48 983.0
20260506002009 51 260 2.6 2.6 0.00 0.00 0.00 47 983.0
20260506001506 52 213 0.0 2.6 0.00 0.00 0.00 46 982.8
20260506001004 52 29 1.7 1.7 0.00 0.00 0.00 47 982.7
20260506000501 52 299 0.0 1.7 0.00 0.00 0.00 45 982.7
20260505235958 52 294 0.0 2.6 0.00 0.00 0.00 46 982.7
20260505235456 52 241 1.7 2.6 0.00 0.00 0.00 45 982.7
20260505234952 52 218 1.7 4.3 0.00 0.00 0.00 45 982.5
20260505234450 52 286 0.0 3.5 0.00 0.00 0.00 45 982.7
20260505233946 53 229 0.0 2.6 0.00 0.00 0.00 45 982.5
20260505233444 53 294 0.9 2.6 0.00 0.00 0.00 44 982.3
20260505232941 53 318 2.6 2.6 0.00 0.00 0.00 46 982.4
20260505232439 53 279 1.7 1.7 0.00 0.00 0.00 46 982.4
20260505231936 53 270 0.0 2.6 0.00 0.00 0.00 46 982.2
20260505231433 53 221 1.7 4.3 0.00 0.00 0.00 44 982.2
20260505230932 53 286 1.7 2.6 0.00 0.00 0.00 46 982.4
20260505230429 53 283 0.9 2.6 0.00 0.00 0.00 45 982.4
20260505225925 53 237 0.0 2.6 0.00 0.00 0.00 47 982.3
20260505225422 54 270 0.0 3.5 0.00 0.00 0.00 46 982.4
20260505224918 54 250 1.7 3.5 0.00 0.00 0.00 50 982.4
20260505224415 54 258 4.3 4.3 0.00 0.00 0.00 50 982.4
20260505223912 54 278 1.7 1.7 0.00 0.00 0.00 58 982.4
20260505223409 54 240 1.7 5.2 0.00 0.00 0.00 57 982.4
20260505222905 54 187 1.7 2.6 0.00 0.00 0.00 58 982.4
20260505222402 54 240 0.0 2.6 0.00 0.00 0.00 57 982.4
20260505221858 54 161 0.0 2.6 0.00 0.00 0.00 57 982.6
20260505221355 54 278 0.0 3.5 0.00 0.00 0.00 56 982.4
20260505220852 54 217 0.0 4.3 0.00 0.00 0.00 55 982.4
20260505220349 55 277 0.0 2.6 0.00 0.00 0.00 55 982.4
20260505215847 54 350 0.0 1.7 0.00 0.00 0.00 56 982.4
20260505215345 54 324 1.7 3.5 0.00 0.00 0.00 56 982.6
20260505214843 54 225 0.0 2.6 0.00 0.00 0.00 55 982.5
20260505214340 55 270 0.0 4.3 0.00 0.00 0.00 56 982.5
20260505213837 55 180 0.0 0.9 0.00 0.00 0.00 57 982.6
20260505213335 55 340 0.0 1.7 0.00 0.00 0.00 57 982.4
20260505212830 55 14 0.0 1.7 0.00 0.00 0.00 56 982.5
20260505212328 54 294 0.0 1.7 0.00 0.00 0.00 56 982.5
20260505211824 54 150 0.0 2.6 0.00 0.00 0.00 56 982.4
20260505211322 54 342 3.5 4.3 0.00 0.00 0.00 57 982.5
20260505210818 54 283 0.9 1.7 0.00 0.00 0.00 58 982.7
20260505210315 54 203 0.9 5.2 0.00 0.00 0.00 58 982.7
20260505205812 54 240 0.0 3.5 0.00 0.00 0.00 59 982.5
20260505205310 54 248 0.0 2.6 0.00 0.00 0.00 59 982.5
20260505204806 54 140 1.7 2.6 0.00 0.00 0.00 61 982.5
20260505204304 54 306 0.0 3.5 0.00 0.00 0.00 63 982.5
20260505203801 54 279 0.0 3.5 0.00 0.00 0.00 64 982.3
20260505203258 54 284 4.3 4.3 0.00 0.00 0.00 65 982.5
20260505202754 54 246 0.9 2.6 0.00 0.00 0.00 66 982.4
20260505202250 54 293 1.7 2.6 0.00 0.00 0.00 65 982.5
20260505201747 54 180 0.9 4.3 0.00 0.00 0.00 66 982.5
20260505201244 54 212 1.7 1.7 0.00 0.00 0.00 65 982.3
20260505200743 54 290 0.0 3.5 0.00 0.00 0.00 64 982.5
20260505200240 54 285 0.0 3.5 0.00 0.00 0.00 64 982.5
20260505195735 54 202 1.7 4.3 0.00 0.00 0.00 63 982.6
20260505195233 55 257 0.9 2.6 0.00 0.00 0.00 63 982.5
20260505194730 54 215 0.9 2.6 0.00 0.00 0.00 63 982.6
20260505194226 54 254 0.0 3.5 0.00 0.00 0.00 63 982.7
20260505193722 54 26 1.7 2.6 0.00 0.00 0.00 63 982.7
20260505193220 54 252 2.6 5.2 0.00 0.00 0.00 63 982.9
20260505192718 54 294 0.9 2.6 0.00 0.00 0.00 63 982.7
20260505192215 55 279 2.6 4.3 0.00 0.00 0.00 64 982.8
20260505191713 55 206 0.9 4.3 0.00 0.00 0.00 65 982.6
20260505191212 54 203 1.7 2.6 0.00 0.00 0.00 65 982.3
20260505190708 54 0 1.7 2.6 0.00 0.00 0.00 64 982.6
20260505190207 54 275 0.0 1.7 0.00 0.00 0.00 65 982.6
20260505185704 54 238 0.0 5.2 0.00 0.00 0.00 64 982.8
20260505185200 54 14 0.0 2.6 0.00 0.00 0.00 64 982.5
20260505184657 55 358 2.6 5.2 0.00 0.00 0.00 62 982.6
20260505184154 55 154 1.7 4.3 0.00 0.00 0.00 63 982.6
20260505183651 55 306 2.6 4.3 0.00 0.00 0.00 62 982.5
20260505183148 55 285 0.0 3.5 0.00 0.00 0.00 62 982.4
20260505182645 54 280 2.6 4.3 0.00 0.00 0.00 62 982.3
20260505182142 54 338 1.7 2.6 0.00 0.00 0.00 64 982.3
20260505181638 54 244 2.6 7.8 0.00 0.00 0.00 61 982.2
20260505181136 55 290 3.5 4.3 0.00 0.00 0.00 60 981.9
20260505180631 55 251 3.5 6.1 0.00 0.00 0.00 58 981.9
20260505180129 56 270 1.7 5.2 0.00 0.00 0.00 61 981.9
20260505175625 55 334 1.7 2.6 0.00 0.00 0.00 66 982.1
20260505175122 55 249 2.6 3.5 0.00 0.00 0.00 69 981.9
20260505174618 54 283 1.7 3.5 0.00 0.00 0.00 70 981.8
20260505174114 54 274 0.0 2.6 0.00 0.00 0.00 70 981.9
20260505173611 54 205 3.5 4.3 0.00 0.00 0.00 70 981.9
20260505173108 54 192 2.6 3.5 0.00 0.00 0.00 69 982.0
20260505172606 53 344 1.7 2.6 0.00 0.00 0.00 71 982.0
20260505172103 53 112 0.0 2.6 0.00 0.00 0.00 71 981.7
20260505171556 53 0 1.7 5.2 0.00 0.00 0.00 73 981.7
20260505171054 54 318 2.6 2.6 0.02 0.00 0.00 74 981.8
20260505170551 53 235 2.6 5.2 0.02 0.00 0.00 73 981.8
20260505170047 53 192 2.6 5.2 0.00 0.00 0.00 74 981.9
20260505165542 53 225 3.5 5.2 0.00 0.00 0.00 74 981.8
20260505165038 53 264 0.9 2.6 0.00 0.00 0.00 76 982.0
20260505164534 52 289 0.9 2.6 0.00 0.00 0.00 77 982.2
20260505164032 51 270 1.7 2.6 0.00 0.00 0.00 77 982.1
20260505163531 51 261 0.0 2.6 0.00 0.00 0.00 78 982.0
20260505163027 51 15 0.0 1.7 0.00 0.00 0.00 78 982.0
20260505162521 50 216 0.0 2.6 0.00 0.00 0.00 79 982.2
20260505162018 50 194 2.6 3.5 0.00 0.00 0.00 79 982.1
20260505161514 50 168 0.9 2.6 0.00 0.00 0.00 80 982.0
20260505161011 50 200 0.9 2.6 0.00 0.00 0.00 80 982.1
20260505160509 50 148 0.0 2.6 0.00 0.00 0.00 79 981.9
20260505152946 49 127 0.0 1.7 0.00 0.00 0.00 80 982.1
20260505152443 49 6 0.0 1.7 0.00 0.00 0.00 76 982.2
20260505151943 50 261 0.0 3.5 0.00 0.00 0.00 77 982.2
20260505151439 50 331 0.0 1.7 0.00 0.00 0.00 75 982.1
20260505150937 50 331 0.0 2.6 0.00 0.00 0.00 75 982.0
20260505150433 50 49 0.0 2.6 0.00 0.00 0.00 73 981.7